Station Historical Data
Daily Summary for June 2, 2017 Units:  English    Metric   Both
« Previous Day
Next Day »
Daily Weekly Monthly Yearly Custom
  High: Low: Average:
Temperature: 77.6 °F 55.8 °F 66.2 °F
Dew Point: 56.7 °F 46.9 °F 52 °F
Humidity: 82 % 38 % 62 %
Wind Speed: 7.0 mph 0.0 mph 1.1 mph
Wind Gust: 11.0 mph - -
Wind:- - South
Pressure: 29.96 in 29.89 in -
Precipitation: 0.00 in    
Historical Graphs
 
 
Tabular Data for June 2, 2017
Time Temperature Dew Point Pressure Wind Wind Speed Wind Gust Humidity Rainfall Rate (Hourly) solar
00:03 60.1 °F 53.6 °F 29.93 in Calm     79 % 0.00 in 0.00 W/m2
00:05 60.1 °F 53.6 °F 29.93 in Calm     79 % 0.00 in 0.00 W/m2
00:10 60.1 °F 53.6 °F 29.93 in Calm     79 % 0.00 in 0.00 W/m2
00:15 60.1 °F 53.6 °F 29.93 in Calm     79 % 0.00 in 0.00 W/m2
00:20 60.0 °F 53.5 °F 29.93 in Calm     79 % 0.00 in 0.00 W/m2
00:25 59.9 °F 53.4 °F 29.92 in Calm     79 % 0.00 in 0.00 W/m2
00:30 59.8 °F 53.3 °F 29.92 in Calm     79 % 0.00 in 0.00 W/m2
00:35 59.6 °F 53.1 °F 29.92 in Calm     79 % 0.00 in 0.00 W/m2
00:40 59.4 °F 53.2 °F 29.92 in Calm     80 % 0.00 in 0.00 W/m2
00:45 59.3 °F 53.1 °F 29.92 in Calm     80 % 0.00 in 0.00 W/m2
00:50 59.3 °F 53.1 °F 29.92 in Calm   1.0 mph 80 % 0.00 in 0.00 W/m2
00:55 59.2 °F 53.0 °F 29.92 in Calm   3.0 mph 80 % 0.00 in 0.00 W/m2
01:00 59.1 °F 52.9 °F 29.92 in Calm     80 % 0.00 in 0.00 W/m2
01:05 59.0 °F 53.2 °F 29.92 in Calm     81 % 0.00 in 0.00 W/m2
01:10 58.9 °F 53.1 °F 29.92 in Calm     81 % 0.00 in 0.00 W/m2
01:15 58.9 °F 53.1 °F 29.92 in Calm   4.0 mph 81 % 0.00 in 0.00 W/m2
01:20 58.8 °F 53.0 °F 29.92 in Calm     81 % 0.00 in 0.00 W/m2
01:25 58.7 °F 52.9 °F 29.92 in Calm     81 % 0.00 in 0.00 W/m2
01:30 58.7 °F 52.9 °F 29.92 in Calm     81 % 0.00 in 0.00 W/m2
01:35 58.6 °F 52.8 °F 29.92 in Calm     81 % 0.00 in 0.00 W/m2
01:40 58.6 °F 52.8 °F 29.92 in WNW 1.0 mph 4.0 mph 81 % 0.00 in 0.00 W/m2
01:45 58.6 °F 52.8 °F 29.92 in WNW 4.0 mph 5.0 mph 81 % 0.00 in 0.00 W/m2
01:47 58.6 °F 52.8 °F 29.92 in WNW 5.0 mph 5.0 mph 81 % 0.00 in 0.00 W/m2
01:52 58.6 °F 52.8 °F 29.92 in WNW 4.0 mph 6.0 mph 81 % 0.00 in 0.00 W/m2
01:57 58.5 °F 53.0 °F 29.92 in NNW 1.0 mph 4.0 mph 82 % 0.00 in 0.00 W/m2
02:02 58.5 °F 53.0 °F 29.92 in NNE 2.0 mph 6.0 mph 82 % 0.00 in 0.00 W/m2
02:07 58.5 °F 53.0 °F 29.92 in Calm   5.0 mph 82 % 0.00 in 0.00 W/m2
02:12 58.5 °F 53.0 °F 29.92 in Calm   3.0 mph 82 % 0.00 in 0.00 W/m2
02:17 58.5 °F 53.0 °F 29.92 in NE 2.0 mph 4.0 mph 82 % 0.00 in 0.00 W/m2
02:22 58.4 °F 52.9 °F 29.92 in NE 2.0 mph 4.0 mph 82 % 0.00 in 0.00 W/m2
02:27 58.4 °F 52.9 °F 29.92 in Calm   5.0 mph 82 % 0.00 in 0.00 W/m2
02:32 58.4 °F 52.6 °F 29.92 in Calm   3.0 mph 81 % 0.00 in 0.00 W/m2
02:37 58.4 °F 52.6 °F 29.92 in NE 1.0 mph 5.0 mph 81 % 0.00 in 0.00 W/m2
02:42 58.3 °F 52.5 °F 29.93 in NE 2.0 mph 4.0 mph 81 % 0.00 in 0.00 W/m2
02:47 58.3 °F 52.5 °F 29.93 in NE 1.0 mph 3.0 mph 81 % 0.00 in 0.00 W/m2
02:52 58.2 °F 52.4 °F 29.93 in Calm   5.0 mph 81 % 0.00 in 0.00 W/m2
02:57 58.1 °F 52.0 °F 29.93 in Calm     80 % 0.00 in 0.00 W/m2
03:02 58.1 °F 52.0 °F 29.93 in NE 2.0 mph 4.0 mph 80 % 0.00 in 0.00 W/m2
03:07 58.1 °F 52.3 °F 29.93 in NE 2.0 mph 4.0 mph 81 % 0.00 in 0.00 W/m2
03:12 58.0 °F 51.9 °F 29.93 in NE 2.0 mph 4.0 mph 80 % 0.00 in 0.00 W/m2
03:17 57.9 °F 51.8 °F 29.93 in NE 2.0 mph 4.0 mph 80 % 0.00 in 0.00 W/m2
03:22 57.8 °F 51.7 °F 29.93 in NE 4.0 mph 4.0 mph 80 % 0.00 in 0.00 W/m2
03:23 57.8 °F 51.7 °F 29.92 in NE 3.0 mph 5.0 mph 80 % 0.00 in 0.00 W/m2
03:28 57.7 °F 51.6 °F 29.92 in NE 3.0 mph 5.0 mph 80 % 0.00 in 0.00 W/m2
03:33 57.7 °F 51.6 °F 29.92 in NE 5.0 mph 5.0 mph 80 % 0.00 in 0.00 W/m2
03:38 57.6 °F 51.5 °F 29.93 in NE 1.0 mph 5.0 mph 80 % 0.00 in 0.00 W/m2
03:43 57.5 °F 51.4 °F 29.93 in NE 2.0 mph 5.0 mph 80 % 0.00 in 0.00 W/m2
03:48 57.4 °F 51.3 °F 29.93 in ENE 2.0 mph 6.0 mph 80 % 0.00 in 0.00 W/m2
03:53 57.3 °F 51.2 °F 29.93 in ENE 4.0 mph 5.0 mph 80 % 0.00 in 0.00 W/m2
03:58 57.2 °F 51.1 °F 29.93 in ENE 4.0 mph 4.0 mph 80 % 0.00 in 0.00 W/m2
04:03 57.1 °F 51.0 °F 29.93 in ENE 4.0 mph 5.0 mph 80 % 0.00 in 0.00 W/m2
04:08 57.1 °F 50.7 °F 29.93 in ENE 3.0 mph 4.0 mph 79 % 0.00 in 0.00 W/m2
04:13 57.0 °F 50.6 °F 29.93 in ENE 1.0 mph 6.0 mph 79 % 0.00 in 0.00 W/m2
04:18 56.9 °F 50.1 °F 29.93 in ENE 3.0 mph 6.0 mph 78 % 0.00 in 0.00 W/m2
04:23 56.8 °F 50.0 °F 29.93 in ENE 3.0 mph 5.0 mph 78 % 0.00 in 0.00 W/m2
04:28 56.7 °F 49.9 °F 29.93 in ENE 3.0 mph 6.0 mph 78 % 0.00 in 0.00 W/m2
04:33 56.6 °F 49.8 °F 29.93 in East 2.0 mph 5.0 mph 78 % 0.00 in 0.00 W/m2
04:39 56.6 °F 49.5 °F 29.93 in East 4.0 mph 5.0 mph 77 % 0.00 in 0.00 W/m2
04:44 56.4 °F 48.9 °F 29.93 in East 4.0 mph 7.0 mph 76 % 0.00 in 0.00 W/m2
04:49 56.4 °F 49.3 °F 29.94 in East 1.0 mph 6.0 mph 77 % 0.00 in 0.00 W/m2
04:55 56.3 °F 48.8 °F 29.94 in East 5.0 mph 6.0 mph 76 % 0.00 in 0.00 W/m2
05:00 56.2 °F 48.4 °F 29.94 in East 3.0 mph 10.0 mph 75 % 0.00 in 0.00 W/m2
05:05 56.2 °F 48.4 °F 29.94 in East 2.0 mph 11.0 mph 75 % 0.00 in 0.00 W/m2
05:10 56.1 °F 48.3 °F 29.94 in East 6.0 mph 11.0 mph 75 % 0.00 in 0.00 W/m2
05:15 56.0 °F 47.8 °F 29.94 in East 4.0 mph 8.0 mph 74 % 0.00 in 0.00 W/m2
05:20 56.0 °F 47.8 °F 29.94 in ESE 5.0 mph 8.0 mph 74 % 0.00 in 0.00 W/m2
05:25 56.0 °F 47.8 °F 29.94 in ESE 1.0 mph 7.0 mph 74 % 0.00 in 0.00 W/m2
05:30 56.0 °F 47.8 °F 29.94 in Calm   7.0 mph 74 % 0.00 in 0.00 W/m2
05:35 56.0 °F 47.8 °F 29.94 in Calm   7.0 mph 74 % 0.00 in 0.00 W/m2
05:40 56.0 °F 47.8 °F 29.94 in Calm   8.0 mph 74 % 0.00 in 5.00 W/m2
05:45 55.9 °F 47.7 °F 29.94 in ESE 4.0 mph 9.0 mph 74 % 0.00 in 7.00 W/m2
05:50 55.9 °F 47.7 °F 29.94 in ESE 1.0 mph 7.0 mph 74 % 0.00 in 11.00 W/m2
05:55 55.9 °F 47.4 °F 29.94 in East 1.0 mph 8.0 mph 73 % 0.00 in 12.00 W/m2
06:00 55.8 °F 47.3 °F 29.94 in ESE 4.0 mph 11.0 mph 73 % 0.00 in 14.00 W/m2
06:05 55.8 °F 46.9 °F 29.94 in East 1.0 mph 8.0 mph 72 % 0.00 in 16.00 W/m2
06:10 55.8 °F 46.9 °F 29.94 in ESE 5.0 mph 11.0 mph 72 % 0.00 in 21.00 W/m2
06:15 55.8 °F 46.9 °F 29.95 in ESE 6.0 mph 11.0 mph 72 % 0.00 in 30.00 W/m2
06:20 55.8 °F 46.9 °F 29.95 in ESE 4.0 mph 9.0 mph 72 % 0.00 in 42.00 W/m2
06:21 55.8 °F 46.9 °F 29.95 in ESE 4.0 mph 5.0 mph 72 % 0.00 in 44.00 W/m2
06:26 55.8 °F 46.9 °F 29.95 in East 2.0 mph 5.0 mph 72 % 0.00 in 54.00 W/m2
06:31 55.8 °F 46.9 °F 29.95 in East 1.0 mph 2.0 mph 72 % 0.00 in 69.00 W/m2
06:36 55.9 °F 47.0 °F 29.95 in East 2.0 mph 4.0 mph 72 % 0.00 in 84.00 W/m2
06:41 55.9 °F 47.0 °F 29.95 in East 2.0 mph 6.0 mph 72 % 0.00 in 100.00 W/m2
06:46 55.9 °F 47.0 °F 29.95 in East 4.0 mph 4.0 mph 72 % 0.00 in 118.00 W/m2
06:51 55.9 °F 47.4 °F 29.95 in Calm     73 % 0.00 in 137.00 W/m2
06:56 55.9 °F 47.4 °F 29.96 in Calm   5.0 mph 73 % 0.00 in 156.00 W/m2
07:01 56.0 °F 47.5 °F 29.96 in East 2.0 mph 2.0 mph 73 % 0.00 in 174.00 W/m2
07:06 56.0 °F 47.8 °F 29.95 in Calm     74 % 0.00 in 195.00 W/m2
07:11 56.0 °F 47.8 °F 29.96 in Calm   2.0 mph 74 % 0.00 in 214.00 W/m2
07:16 56.1 °F 48.3 °F 29.96 in Calm     75 % 0.00 in 237.00 W/m2
07:21 56.1 °F 47.9 °F 29.96 in Calm     74 % 0.00 in 258.00 W/m2
07:26 56.2 °F 48.4 °F 29.96 in Calm     75 % 0.00 in 274.00 W/m2
07:31 56.2 °F 48.8 °F 29.96 in Calm     76 % 0.00 in 295.00 W/m2
07:36 56.3 °F 48.8 °F 29.96 in Calm     76 % 0.00 in 313.00 W/m2
07:41 56.4 °F 48.9 °F 29.96 in Calm     76 % 0.00 in 329.00 W/m2
07:46 56.6 °F 49.5 °F 29.96 in Calm     77 % 0.00 in 346.00 W/m2
07:51 56.7 °F 49.9 °F 29.96 in Calm     78 % 0.00 in 360.00 W/m2
07:56 56.9 °F 50.1 °F 29.96 in Calm     78 % 0.00 in 378.00 W/m2
08:01 57.1 °F 50.7 °F 29.96 in Calm     79 % 0.00 in 394.00 W/m2
08:02 57.1 °F 50.7 °F 29.96 in Calm     79 % 0.00 in 397.00 W/m2
08:07 57.3 °F 51.2 °F 29.96 in Calm     80 % 0.00 in 413.00 W/m2
08:12 57.6 °F 51.5 °F 29.96 in Calm     80 % 0.00 in 429.00 W/m2
08:17 57.9 °F 51.8 °F 29.96 in Calm     80 % 0.00 in 446.00 W/m2
08:22 58.2 °F 52.4 °F 29.96 in Calm     81 % 0.00 in 461.00 W/m2
08:27 58.5 °F 52.7 °F 29.96 in Calm     81 % 0.00 in 476.00 W/m2
08:32 58.9 °F 53.1 °F 29.96 in Calm     81 % 0.00 in 494.00 W/m2
08:37 59.1 °F 53.3 °F 29.96 in Calm     81 % 0.00 in 508.00 W/m2
08:42 59.5 °F 52.6 °F 29.96 in Calm     78 % 0.00 in 526.00 W/m2
08:47 59.8 °F 52.6 °F 29.96 in Calm     77 % 0.00 in 541.00 W/m2
08:52 60.1 °F 53.2 °F 29.96 in Calm     78 % 0.00 in 555.00 W/m2
08:57 60.3 °F 53.4 °F 29.96 in Calm     78 % 0.00 in 571.00 W/m2
09:02 60.6 °F 53.4 °F 29.96 in Calm     77 % 0.00 in 587.00 W/m2
09:07 60.9 °F 53.7 °F 29.96 in Calm     77 % 0.00 in 599.00 W/m2
09:12 61.1 °F 53.8 °F 29.96 in Calm     77 % 0.00 in 615.00 W/m2
09:17 61.4 °F 53.8 °F 29.96 in Calm     76 % 0.00 in 629.00 W/m2
09:22 61.7 °F 54.1 °F 29.96 in Calm     76 % 0.00 in 643.00 W/m2
09:27 62.0 °F 54.4 °F 29.96 in Calm     76 % 0.00 in 659.00 W/m2
09:32 62.5 °F 53.0 °F 29.96 in East 3.0 mph 5.0 mph 71 % 0.00 in 673.00 W/m2
09:37 63.3 °F 52.2 °F 29.96 in Calm     67 % 0.00 in 686.00 W/m2
09:42 64.0 °F 52.0 °F 29.96 in Calm     65 % 0.00 in 696.00 W/m2
09:47 64.6 °F 51.3 °F 29.96 in Calm   2.0 mph 62 % 0.00 in 710.00 W/m2
09:52 65.1 °F 52.2 °F 29.96 in Calm   2.0 mph 63 % 0.00 in 724.00 W/m2
09:57 65.8 °F 52.4 °F 29.95 in East 2.0 mph 4.0 mph 62 % 0.00 in 735.00 W/m2
10:02 66.2 °F 52.4 °F 29.95 in Calm     61 % 0.00 in 747.00 W/m2
10:07 66.6 °F 53.2 °F 29.95 in Calm     62 % 0.00 in 759.00 W/m2
10:12 67.1 °F 52.8 °F 29.95 in East 1.0 mph 1.0 mph 60 % 0.00 in 772.00 W/m2
10:17 67.4 °F 52.6 °F 29.95 in Calm   2.0 mph 59 % 0.00 in 784.00 W/m2
10:22 67.8 °F 52.5 °F 29.95 in Calm   1.0 mph 58 % 0.00 in 795.00 W/m2
10:23 67.8 °F 52.5 °F 29.95 in Calm   1.0 mph 58 % 0.00 in 796.00 W/m2
10:28 68.1 °F 52.3 °F 29.95 in Calm   1.0 mph 57 % 0.00 in 807.00 W/m2
10:33 68.4 °F 53.1 °F 29.95 in Calm   1.0 mph 58 % 0.00 in 816.00 W/m2
10:38 68.7 °F 51.9 °F 29.95 in Calm   1.0 mph 55 % 0.00 in 824.00 W/m2
10:43 69.0 °F 52.7 °F 29.95 in Calm   2.0 mph 56 % 0.00 in 837.00 W/m2
10:48 69.3 °F 52.0 °F 29.95 in ENE 2.0 mph 4.0 mph 54 % 0.00 in 847.00 W/m2
10:53 69.5 °F 52.2 °F 29.95 in Calm   3.0 mph 54 % 0.00 in 856.00 W/m2
10:58 69.9 °F 51.5 °F 29.95 in Calm     52 % 0.00 in 865.00 W/m2
11:03 70.2 °F 51.8 °F 29.95 in Calm   1.0 mph 52 % 0.00 in 875.00 W/m2
11:08 70.4 °F 50.9 °F 29.95 in Calm   1.0 mph 50 % 0.00 in 870.00 W/m2
11:13 70.6 °F 51.6 °F 29.95 in Calm   1.0 mph 51 % 0.00 in 898.00 W/m2
11:18 70.8 °F 51.3 °F 29.95 in Calm     50 % 0.00 in 900.00 W/m2
11:28 71.2 °F 51.1 °F 29.95 in Calm     49 % 0.00 in 914.00 W/m2
11:33 71.5 °F 50.8 °F 29.95 in North 2.0 mph 7.0 mph 48 % 0.00 in 919.00 W/m2
11:38 71.7 °F 51.0 °F 29.95 in Calm   5.0 mph 48 % 0.00 in 926.00 W/m2
11:43 72.0 °F 50.7 °F 29.95 in NW 4.0 mph 4.0 mph 47 % 0.00 in 930.00 W/m2
11:48 72.3 °F 51.0 °F 29.95 in Calm   3.0 mph 47 % 0.00 in 933.00 W/m2
11:53 72.6 °F 50.7 °F 29.95 in Calm   3.0 mph 46 % 0.00 in 939.00 W/m2
11:58 72.8 °F 50.8 °F 29.95 in Calm   1.0 mph 46 % 0.00 in 944.00 W/m2
12:03 73.0 °F 50.4 °F 29.95 in Calm   5.0 mph 45 % 0.00 in 947.00 W/m2
12:08 73.2 °F 49.4 °F 29.95 in Calm   10.0 mph 43 % 0.00 in 953.00 W/m2
12:13 73.4 °F 49.6 °F 29.95 in Calm   3.0 mph 43 % 0.00 in 953.00 W/m2
12:18 73.6 °F 50.4 °F 29.95 in NNW 2.0 mph 5.0 mph 44 % 0.00 in 958.00 W/m2
12:23 73.8 °F 50.5 °F 29.95 in NW 4.0 mph 5.0 mph 44 % 0.00 in 969.00 W/m2
12:28 74.1 °F 52.0 °F 29.94 in Calm   5.0 mph 46 % 0.00 in 953.00 W/m2
12:33 74.4 °F 52.9 °F 29.94 in WSW 3.0 mph 8.0 mph 47 % 0.00 in 965.00 W/m2
12:38 74.9 °F 50.9 °F 29.94 in Calm   4.0 mph 43 % 0.00 in 962.00 W/m2
12:43 75.5 °F 52.1 °F 29.94 in Calm     44 % 0.00 in 965.00 W/m2
12:48 75.8 °F 54.2 °F 29.94 in West 3.0 mph 7.0 mph 47 % 0.00 in 960.00 W/m2
12:53 75.8 °F 55.3 °F 29.94 in West 2.0 mph 8.0 mph 49 % 0.00 in 963.00 W/m2
12:59 76.1 °F 55.6 °F 29.94 in WSW 2.0 mph 6.0 mph 49 % 0.00 in 958.00 W/m2
13:04 76.5 °F 54.8 °F 29.93 in Calm   9.0 mph 47 % 0.00 in 956.00 W/m2
13:09 76.7 °F 55.0 °F 29.93 in WNW 1.0 mph 7.0 mph 47 % 0.00 in 958.00 W/m2
13:14 76.6 °F 54.9 °F 29.93 in WNW 2.0 mph 3.0 mph 47 % 0.00 in 954.00 W/m2
13:19 76.6 °F 56.0 °F 29.93 in WNW 5.0 mph 6.0 mph 49 % 0.00 in 956.00 W/m2
13:24 76.6 °F 56.6 °F 29.93 in West 6.0 mph 7.0 mph 50 % 0.00 in 956.00 W/m2
13:29 76.7 °F 56.7 °F 29.93 in West 1.0 mph 7.0 mph 50 % 0.00 in 953.00 W/m2
13:34 76.9 °F 56.3 °F 29.93 in WNW 5.0 mph 8.0 mph 49 % 0.00 in 953.00 W/m2
13:39 76.9 °F 55.7 °F 29.93 in WNW 6.0 mph 7.0 mph 48 % 0.00 in 949.00 W/m2
13:44 76.8 °F 55.1 °F 29.93 in Calm   8.0 mph 47 % 0.00 in 942.00 W/m2
13:49 76.7 °F 56.1 °F 29.93 in NW 1.0 mph 9.0 mph 49 % 0.00 in 942.00 W/m2
13:54 76.6 °F 55.5 °F 29.93 in Calm   7.0 mph 48 % 0.00 in 935.00 W/m2
13:59 76.5 °F 55.4 °F 29.93 in WNW 2.0 mph 6.0 mph 48 % 0.00 in 932.00 W/m2
14:04 76.4 °F 54.1 °F 29.93 in WNW 3.0 mph 9.0 mph 46 % 0.00 in 926.00 W/m2
14:09 76.3 °F 54.6 °F 29.92 in Calm   1.0 mph 47 % 0.00 in 923.00 W/m2
14:14 76.1 °F 54.4 °F 29.92 in WNW 2.0 mph 8.0 mph 47 % 0.00 in 916.00 W/m2
14:19 76.1 °F 55.6 °F 29.92 in WNW 5.0 mph 6.0 mph 49 % 0.00 in 909.00 W/m2
14:24 76.2 °F 54.5 °F 29.92 in West 5.0 mph 7.0 mph 47 % 0.00 in 898.00 W/m2
14:29 76.3 °F 55.2 °F 29.92 in Calm   4.0 mph 48 % 0.00 in 895.00 W/m2
14:34 76.5 °F 54.2 °F 29.92 in WNW 7.0 mph 7.0 mph 46 % 0.00 in 895.00 W/m2
14:39 76.5 °F 53.0 °F 29.92 in NW 3.0 mph 7.0 mph 44 % 0.00 in 884.00 W/m2
14:44 76.2 °F 52.7 °F 29.92 in NW 1.0 mph 8.0 mph 44 % 0.00 in 881.00 W/m2
14:49 76.1 °F 53.2 °F 29.92 in NW 6.0 mph 7.0 mph 45 % 0.00 in 874.00 W/m2
14:54 76.2 °F 53.3 °F 29.92 in Calm   9.0 mph 45 % 0.00 in 860.00 W/m2
15:04 76.5 °F 53.0 °F 29.91 in Calm   1.0 mph 44 % 0.00 in 849.00 W/m2
15:09 76.7 °F 52.5 °F 29.92 in Calm   5.0 mph 43 % 0.00 in 837.00 W/m2
15:14 76.8 °F 51.3 °F 29.92 in Calm   6.0 mph 41 % 0.00 in 828.00 W/m2
15:19 76.9 °F 52.1 °F 29.92 in Calm   6.0 mph 42 % 0.00 in 819.00 W/m2
15:20 77.0 °F 52.2 °F 29.91 in WNW 2.0 mph 6.0 mph 42 % 0.00 in 816.00 W/m2
15:25 77.0 °F 52.2 °F 29.92 in Calm   2.0 mph 42 % 0.00 in 805.00 W/m2
15:30 77.0 °F 52.2 °F 29.92 in Calm   2.0 mph 42 % 0.00 in 798.00 W/m2
15:35 76.9 °F 50.1 °F 29.92 in Calm   4.0 mph 39 % 0.00 in 789.00 W/m2
15:40 76.8 °F 51.3 °F 29.91 in Calm   7.0 mph 41 % 0.00 in 777.00 W/m2
15:45 76.9 °F 51.4 °F 29.91 in Calm   1.0 mph 41 % 0.00 in 763.00 W/m2
15:50 76.9 °F 51.4 °F 29.91 in Calm   2.0 mph 41 % 0.00 in 752.00 W/m2
15:55 76.9 °F 51.4 °F 29.91 in West 5.0 mph 6.0 mph 41 % 0.00 in 738.00 W/m2
16:00 77.0 °F 50.2 °F 29.91 in Calm   5.0 mph 39 % 0.00 in 729.00 W/m2
16:05 77.1 °F 49.6 °F 29.91 in Calm   5.0 mph 38 % 0.00 in 717.00 W/m2
16:10 77.2 °F 50.3 °F 29.90 in Calm     39 % 0.00 in 700.00 W/m2
16:15 77.2 °F 51.7 °F 29.90 in Calm   7.0 mph 41 % 0.00 in 691.00 W/m2
16:20 77.3 °F 51.8 °F 29.90 in WNW 2.0 mph 4.0 mph 41 % 0.00 in 675.00 W/m2
16:25 77.4 °F 51.2 °F 29.90 in Calm   5.0 mph 40 % 0.00 in 659.00 W/m2
16:30 77.6 °F 51.4 °F 29.90 in Calm   8.0 mph 40 % 0.00 in 645.00 W/m2
16:35 77.5 °F 50.6 °F 29.90 in NW 3.0 mph 10.0 mph 39 % 0.00 in 629.00 W/m2
16:40 77.3 °F 51.1 °F 29.90 in Calm   3.0 mph 40 % 0.00 in 617.00 W/m2
16:45 77.2 °F 52.4 °F 29.90 in Calm   5.0 mph 42 % 0.00 in 603.00 W/m2
16:50 77.1 °F 52.3 °F 29.90 in Calm   7.0 mph 42 % 0.00 in 587.00 W/m2
16:55 77.1 °F 52.9 °F 29.89 in Calm   2.0 mph 43 % 0.00 in 573.00 W/m2
17:01 77.1 °F 52.9 °F 29.90 in Calm     43 % 0.00 in 557.00 W/m2
17:11 77.0 °F 51.5 °F 29.90 in Calm     41 % 0.00 in 526.00 W/m2
17:16 76.9 °F 52.1 °F 29.90 in Calm     42 % 0.00 in 513.00 W/m2
17:21 76.9 °F 52.1 °F 29.90 in Calm   1.0 mph 42 % 0.00 in 497.00 W/m2
17:26 76.9 °F 52.7 °F 29.90 in Calm     43 % 0.00 in 482.00 W/m2
17:31 76.9 °F 53.3 °F 29.90 in Calm     44 % 0.00 in 466.00 W/m2
17:36 76.8 °F 52.6 °F 29.90 in Calm     43 % 0.00 in 446.00 W/m2
17:41 76.8 °F 52.6 °F 29.90 in West 7.0 mph 7.0 mph 43 % 0.00 in 432.00 W/m2
17:46 76.8 °F 53.3 °F 29.90 in Calm     44 % 0.00 in 415.00 W/m2
17:51 76.8 °F 53.3 °F 29.90 in Calm     44 % 0.00 in 403.00 W/m2
17:56 76.8 °F 53.9 °F 29.90 in Calm     45 % 0.00 in 388.00 W/m2
18:01 76.7 °F 52.5 °F 29.90 in West 2.0 mph 3.0 mph 43 % 0.00 in 373.00 W/m2
18:06 76.7 °F 52.5 °F 29.90 in Calm   4.0 mph 43 % 0.00 in 355.00 W/m2
18:11 76.6 °F 53.1 °F 29.89 in Calm     44 % 0.00 in 338.00 W/m2
18:16 76.5 °F 53.0 °F 29.90 in WSW 2.0 mph 2.0 mph 44 % 0.00 in 322.00 W/m2
18:21 76.4 °F 52.9 °F 29.90 in Calm   1.0 mph 44 % 0.00 in 304.00 W/m2
18:26 76.2 °F 54.5 °F 29.90 in Calm   2.0 mph 47 % 0.00 in 290.00 W/m2
18:31 76.1 °F 53.2 °F 29.90 in Calm   3.0 mph 45 % 0.00 in 274.00 W/m2
18:36 75.9 °F 54.8 °F 29.90 in Calm     48 % 0.00 in 260.00 W/m2
18:41 75.7 °F 54.1 °F 29.90 in WSW 2.0 mph 3.0 mph 47 % 0.00 in 221.00 W/m2
18:46 75.6 °F 55.1 °F 29.90 in WSW 1.0 mph 1.0 mph 49 % 0.00 in 227.00 W/m2
18:51 75.4 °F 54.9 °F 29.90 in Calm     49 % 0.00 in 216.00 W/m2
18:56 75.3 °F 54.8 °F 29.90 in Calm     49 % 0.00 in 200.00 W/m2
19:01 75.0 °F 55.1 °F 29.90 in Calm   5.0 mph 50 % 0.00 in 181.00 W/m2
19:11 74.6 °F 55.3 °F 29.90 in Calm     51 % 0.00 in 141.00 W/m2
19:16 74.3 °F 55.0 °F 29.90 in Calm     51 % 0.00 in 120.00 W/m2
19:21 73.9 °F 54.1 °F 29.90 in Calm     50 % 0.00 in 105.00 W/m2
19:26 73.6 °F 53.8 °F 29.90 in Calm     50 % 0.00 in 88.00 W/m2
19:31 73.3 °F 54.6 °F 29.90 in Calm     52 % 0.00 in 63.00 W/m2
19:36 73.0 °F 54.4 °F 29.90 in Calm     52 % 0.00 in 58.00 W/m2
19:42 72.7 °F 54.6 °F 29.90 in Calm     53 % 0.00 in 40.00 W/m2
19:47 72.4 °F 54.8 °F 29.90 in Calm     54 % 0.00 in 28.00 W/m2
19:52 72.1 °F 55.1 °F 29.90 in Calm     55 % 0.00 in 18.00 W/m2
19:57 71.7 °F 54.7 °F 29.90 in Calm     55 % 0.00 in 12.00 W/m2
20:02 71.4 °F 54.4 °F 29.90 in Calm     55 % 0.00 in 11.00 W/m2
20:07 70.9 °F 54.0 °F 29.90 in Calm     55 % 0.00 in 9.00 W/m2
20:12 70.4 °F 53.5 °F 29.90 in Calm     55 % 0.00 in 7.00 W/m2
20:17 70.0 °F 53.6 °F 29.90 in Calm     56 % 0.00 in 5.00 W/m2
20:22 69.5 °F 53.6 °F 29.90 in Calm     57 % 0.00 in 5.00 W/m2
20:27 69.0 °F 53.2 °F 29.90 in Calm   1.0 mph 57 % 0.00 in 0.00 W/m2
20:32 68.6 °F 53.2 °F 29.90 in Calm     58 % 0.00 in 0.00 W/m2
20:37 68.3 °F 53.0 °F 29.90 in West 2.0 mph 3.0 mph 58 % 0.00 in 0.00 W/m2
20:42 67.9 °F 53.1 °F 29.90 in Calm     59 % 0.00 in 0.00 W/m2
20:47 67.6 °F 52.8 °F 29.90 in Calm     59 % 0.00 in 0.00 W/m2
20:52 67.4 °F 52.6 °F 29.90 in Calm     59 % 0.00 in 0.00 W/m2
20:57 67.2 °F 52.9 °F 29.90 in Calm     60 % 0.00 in 0.00 W/m2
21:02 66.9 °F 52.6 °F 29.91 in Calm     60 % 0.00 in 0.00 W/m2
21:07 66.8 °F 52.5 °F 29.91 in Calm     60 % 0.00 in 0.00 W/m2
21:12 66.6 °F 52.3 °F 29.91 in Calm     60 % 0.00 in 0.00 W/m2
21:17 66.4 °F 52.1 °F 29.91 in Calm     60 % 0.00 in 0.00 W/m2
21:22 66.3 °F 52.5 °F 29.91 in Calm     61 % 0.00 in 0.00 W/m2
21:27 66.1 °F 52.3 °F 29.91 in Calm     61 % 0.00 in 0.00 W/m2
21:32 65.9 °F 52.1 °F 29.91 in Calm     61 % 0.00 in 0.00 W/m2
21:37 65.8 °F 52.0 °F 29.91 in Calm     61 % 0.00 in 0.00 W/m2
21:42 65.7 °F 52.3 °F 29.91 in Calm     62 % 0.00 in 0.00 W/m2
21:47 65.6 °F 52.2 °F 29.91 in Calm     62 % 0.00 in 0.00 W/m2
21:52 65.5 °F 51.7 °F 29.91 in Calm     61 % 0.00 in 0.00 W/m2
21:57 65.4 °F 51.6 °F 29.91 in Calm     61 % 0.00 in 0.00 W/m2
22:02 65.3 °F 52.0 °F 29.91 in Calm     62 % 0.00 in 0.00 W/m2
22:07 65.2 °F 51.9 °F 29.91 in Calm     62 % 0.00 in 0.00 W/m2
22:12 65.2 °F 51.9 °F 29.91 in Calm     62 % 0.00 in 0.00 W/m2
22:17 65.2 °F 51.9 °F 29.91 in Calm     62 % 0.00 in 0.00 W/m2
22:22 65.1 °F 51.8 °F 29.91 in Calm   2.0 mph 62 % 0.00 in 0.00 W/m2
22:27 65.1 °F 51.8 °F 29.91 in Calm   3.0 mph 62 % 0.00 in 0.00 W/m2
22:32 65.0 °F 52.1 °F 29.91 in Calm   3.0 mph 63 % 0.00 in 0.00 W/m2
22:37 65.0 °F 52.1 °F 29.91 in West 2.0 mph 4.0 mph 63 % 0.00 in 0.00 W/m2
22:43 64.9 °F 52.0 °F 29.91 in Calm   3.0 mph 63 % 0.00 in 0.00 W/m2
22:48 64.9 °F 52.5 °F 29.91 in Calm   1.0 mph 64 % 0.00 in 0.00 W/m2
22:53 64.9 °F 52.0 °F 29.91 in West 1.0 mph 6.0 mph 63 % 0.00 in 0.00 W/m2
22:58 64.9 °F 52.0 °F 29.91 in West 3.0 mph 6.0 mph 63 % 0.00 in 0.00 W/m2
23:03 64.9 °F 52.5 °F 29.90 in Calm   6.0 mph 64 % 0.00 in 0.00 W/m2
23:08 64.8 °F 52.3 °F 29.91 in WSW 5.0 mph 6.0 mph 64 % 0.00 in 0.00 W/m2
23:13 64.8 °F 52.3 °F 29.91 in SW 2.0 mph 5.0 mph 64 % 0.00 in 0.00 W/m2
23:18 64.8 °F 52.3 °F 29.91 in South 2.0 mph 6.0 mph 64 % 0.00 in 0.00 W/m2
23:23 64.8 °F 52.3 °F 29.91 in SSE 5.0 mph 7.0 mph 64 % 0.00 in 0.00 W/m2
23:28 64.8 °F 52.3 °F 29.91 in SSE 4.0 mph 7.0 mph 64 % 0.00 in 0.00 W/m2
23:33 64.7 °F 52.3 °F 29.91 in SSE 2.0 mph 6.0 mph 64 % 0.00 in 0.00 W/m2
23:38 64.7 °F 52.3 °F 29.91 in Calm   7.0 mph 64 % 0.00 in 0.00 W/m2
23:43 64.7 °F 52.3 °F 29.91 in SE 2.0 mph 7.0 mph 64 % 0.00 in 0.00 W/m2
23:48 64.6 °F 52.2 °F 29.91 in Calm   6.0 mph 64 % 0.00 in 0.00 W/m2
23:53 64.6 °F 52.6 °F 29.91 in SE 5.0 mph 8.0 mph 65 % 0.00 in 0.00 W/m2
23:58 64.5 °F 52.5 °F 29.91 in SE 5.0 mph 5.0 mph 65 % 0.00 in 0.00 W/m2
Juneau County Weather
Compliments of Weather Underground - 4.5 mb
 WU-history PHP script courtesy of   Juneau County Weather.
powered by Cumulus v1.9.3 (1059)
Ambient Weather VWS v14.00
Top Contact Website Map Copyright © 2007 - 2018 Foresthillweather.com Never base important decisions on this or any weather information obtained from the Internet